Main page
METAR-TAF:

METAR-TAF

Airports :

Oil platform

Heimdal, Norway

latitude: 59-34-12N, longitude: 2-13-48E, elevation: 10 m

Current weather observation

The report was made 38 minutes ago, at 22:50 UTC
Wind 30 kt from the West
Temperature 10°C
Humidity 100%
Pressure 998 hPa
Visibility 10 km or more

METAR: ENHM 252250Z AUTO 27030KT 9999NDV FEW062/// SCT100/// 10/10 Q0998 W10/S/

Time: 01:28 (23:28 UTC)


TAF: missing

Weather observations and forecasts of more than 4000 airports (METAR and TAF reports).

The available stations are represented by yellow and red dots on the map.

Hover mouse over dot to see the name of the station.

Then click to see weather observations and forecasts.

To change the map : click on the green buttons with a black cross to zoom in, on the green button with a dash to zoom out, or on the green arrows for adjacent maps.


METAR-TAF: